Wind_Speed
30 33 36 36 34 35 39 36 37 36 39 35 33 35 34 38 39 36 37 39 38 33 28 30 31 38 36 28 25 24 25 27 28 29 30 31 31 29 28 27 26 26 25 24
31 33 37 38 37 33 34 33 35 34 32 28 27 37 35 37 37 38 40 41 32 28 27 29 27 28 28 27 26 26 27 27 29 32 33 33 31 31 29 28 26 24 25 23
31 35 38 40 28 31 24 26 27 26 23 20 29 35 35 37 38 37 27 22 23 25 27 24 25 27 28 29 30 31 31 30 30 29 28 32 34 30 28 27 25 24 22 21
32 34 38 29 25 22 17 15 17 21 23 29 30 32 32 32 24 22 21 18 21 21 21 23 25 28 30 32 32 32 32 31 31 32 28 26 30 33 31 25 22 23 23 21
32 25 28 17 17 16 16 19 16 24 27 26 27 25 27 25 19 16 16 19 19 19 20 22 22 23 24 25 26 27 27 26 27 28 27 23 26 29 30 30 25 21 22 22
20 23 25 13 8 5 16 19 21 24 28 21 18 18 15 16 14 14 15 16 17 18 17 16 17 18 19 20 22 24 25 25 25 25 26 24 23 26 27 27 27 25 23 22
17 22 19 12 18 8 13 20 21 25 17 18 19 18 14 15 14 14 14 15 12 11 12 14 15 17 19 20 20 20 16 19 22 22 25 19 19 22 25 25 25 25 23 22
17 18 13 13 21 21 20 20 21 21 22 18 21 15 14 13 13 13 11 9 9 11 13 15 17 18 19 20 19 18 17 20 20 22 24 19 18 20 21 25 25 25 25 27
18 18 11 11 14 16 21 21 25 21 20 18 17 15 14 14 14 13 12 11 11 13 15 17 18 19 19 19 19 19 18 20 20 21 23 20 18 19 19 19 21 23 26 27
14 18 23 20 20 21 24 24 20 19 19 18 16 16 16 16 16 15 14 13 13 15 17 19 20 20 20 20 20 21 21 22 22 24 25 23 22 21 21 22 24 26 27 28
21 21 23 21 24 22 22 23 20 18 18 18 17 16 17 17 17 15 15 15 16 18 19 21 21 21 21 20 21 22 23 23 24 25 27 28 27 26 26 27 29 30 31 33
25 23 21 22 22 23 23 23 18 19 18 18 18 17 17 17 17 17 17 18 19 21 21 22 22 23 22 22 22 22 24 25 27 28 30 31 31 32 32 32 33 34 35 35
21 24 24 25 25 26 24 21 18 19 19 19 18 18 18 18 18 18 19 20 22 22 23 23 24 24 25 25 25 25 26 28 29 31 32 33 33 32 32 35 35 36 38 39
22 21 22 21 21 22 20 21 22 21 19 18 19 19 18 18 18 18 21 22 23 24 25 25 26 27 27 27 28 28 29 30 31 32 32 33 34 35 36 36 36 36 37 39
25 24 23 24 23 22 22 20 18 18 18 18 19 18 18 19 19 22 24 23 24 26 27 27 28 29 29 29 30 30 30 31 32 33 34 35 36 37 38 39 40 41 42 41
29 26 27 27 25 24 22 19 19 18 18 19 19 19 21 23 23 26 26 26 26 27 28 28 30 30 30 31 31 31 32 33 34 34 36 37 38 40 41 42 43 44 44 45
26 23 23 24 27 24 21 19 18 18 18 18 19 21 24 26 27 28 28 29 28 28 29 29 31 32 33 33 33 33 33 35 36 36 36 38 40 42 43 45 47 49 50 51
22 22 23 22 22 20 20 18 18 18 18 19 22 25 25 28 28 27 28 30 30 31 30 30 32 34 34 34 35 35 35 35 38 39 40 42 44 46 47 48 48 49 50 51
25 24 23 21 21 20 19 18 19 20 21 23 24 24 27 28 28 29 28 29 31 31 31 31 34 36 35 36 37 37 38 39 40 42 45 46 47 47 47 48 49 50 51 51
22 20 18 17 16 17 18 20 21 21 22 23 25 28 28 27 28 29 29 29 30 31 31 34 37 36 36 38 38 38 40 42 45 47 47 46 46 47 49 51 51 52 52 53
17 15 15 15 16 17 18 20 21 22 24 26 29 29 27 27 29 29 30 31 31 31 35 37 36 37 37 37 38 41 44 46 46 46 47 49 51 51 51 50 50 50 51 52
11 13 14 14 16 17 19 20 22 26 29 29 28 27 27 29 29 29 30 31 33 35 35 36 36 36 37 39 42 44 45 45 47 47 46 46 46 46 46 47 48 50 51 53
12 13 14 15 17 19 22 25 26 26 27 27 27 28 28 29 29 30 32 34 34 35 36 36 36 37 39 42 44 44 45 45 44 45 45 45 45 47 48 49 51 53 54 55
16 16 17 20 23 25 25 26 26 26 25 26 28 29 29 31 31 32 33 34 35 35 35 36 37 40 43 43 43 44 44 44 45 45 46 46 47 48 50 52 53 54 54 55
19 22 23 24 24 26 27 26 26 25 27 28 29 30 31 32 32 34 35 35 35 35 36 38 41 43 43 43 45 45 45 46 46 46 46 47 49 51 52 52 52 53 53 52
22 23 24 24 25 26 27 26 27 28 29 30 31 32 32 33 34 35 36 36 36 36 39 42 44 43 44 45 45 46 47 46 46 46 47 49 50 51 50 51 50 49 50 52
22 23 24 25 26 26 27 27 28 31 31 31 32 33 35 35 35 36 36 36 37 40 43 43 43 45 45 46 46 46 46 46 47 48 49 50 50 49 49 48 47 49 52 54
Wind_Direction
269 268 272 276 272 269 270 271 267 262 270 280 286 281 281 286 289 287 286 294 295 290 281 280 276 278 290 293 289 286 290 292 291 290 287 286 284 287 292 302 308 316 322 327
270 272 274 271 274 278 276 268 263 258 262 279 289 292 288 291 288 283 285 288 280 284 279 281 282 285 289 291 295 295 292 292 294 292 289 287 282 281 285 292 299 308 311 320
271 276 276 276 289 274 262 263 263 262 274 293 278 282 290 289 290 284 281 277 271 276 280 282 285 286 290 294 294 293 291 287 285 294 300 303 287 279 285 286 290 295 300 303
276 278 280 291 273 270 271 269 272 275 275 274 288 290 286 289 286 283 277 268 274 278 278 283 290 293 295 295 296 294 292 289 287 290 298 301 302 291 276 282 289 290 292 295
278 278 286 290 262 243 248 271 255 282 282 289 274 275 277 281 279 274 269 269 273 280 287 288 290 293 297 299 297 297 296 294 292 292 294 295 301 300 293 284 276 281 288 292
271 276 281 255 276 259 249 264 281 277 286 277 276 280 274 274 271 269 276 283 286 284 281 290 297 298 303 309 310 308 304 299 294 293 291 293 304 306 301 300 293 278 278 284
274 280 282 261 252 239 280 279 277 283 276 282 290 290 273 267 275 284 284 277 276 288 302 307 310 318 317 318 321 320 326 324 299 301 300 302 307 311 307 299 294 286 278 284
282 289 298 261 252 261 265 275 286 275 272 275 285 285 275 280 277 271 264 273 293 305 312 320 321 318 317 318 320 317 313 315 306 302 302 298 307 313 315 308 302 296 289 277
275 271 267 251 271 270 278 279 290 281 268 278 282 278 282 278 269 262 266 277 291 303 315 314 313 315 313 313 309 307 303 306 311 306 299 293 295 300 305 308 300 299 295 290
264 272 272 271 278 278 283 287 288 265 265 276 274 278 280 277 270 270 278 288 298 306 308 309 310 312 309 308 304 302 301 300 302 301 295 289 289 291 294 300 303 300 298 296
246 260 254 269 281 286 287 287 281 264 265 269 267 271 275 274 271 274 281 289 298 302 302 303 304 305 304 305 303 299 297 295 297 296 290 287 285 288 291 294 295 295 295 296
250 254 260 269 273 276 283 287 274 262 264 266 266 268 271 271 276 280 284 290 294 299 302 303 304 304 302 301 300 299 298 296 294 294 292 290 291 291 291 292 293 292 292 292
259 261 263 271 276 278 278 277 267 262 263 262 263 266 269 274 278 281 286 291 295 297 301 301 303 303 303 302 300 299 297 295 295 293 293 293 294 293 294 296 295 296 296 296
259 266 271 275 285 280 270 274 268 258 259 259 263 266 271 275 278 281 286 291 296 297 298 302 303 303 303 304 304 304 303 299 297 297 298 298 298 297 297 296 295 295 296 297
269 269 271 278 282 282 264 270 261 256 257 259 265 269 269 272 277 282 283 288 293 297 299 302 303 303 304 304 304 304 303 301 301 301 300 301 300 300 300 299 299 298 297 297
269 263 270 272 275 281 258 256 261 261 260 263 266 268 268 272 275 281 284 285 290 297 299 300 302 305 305 304 305 304 304 303 303 303 303 302 301 300 299 298 297 297 295 293
263 262 257 256 263 268 247 254 259 262 264 265 267 271 279 282 282 286 287 287 288 292 296 299 303 304 304 304 305 305 305 304 304 304 304 302 301 300 299 296 295 294 295 296
252 257 263 259 259 251 247 256 260 262 266 268 275 279 281 287 290 290 292 292 291 292 295 300 303 304 303 303 304 304 304 304 303 304 305 303 301 300 298 297 297 297 297 296
255 254 262 257 254 242 250 256 263 270 274 277 280 284 289 293 292 292 291 293 294 297 298 300 305 304 303 303 304 306 305 305 306 305 303 302 301 301 301 301 300 300 300 300
254 255 250 245 245 247 254 261 269 275 280 284 286 290 291 291 294 296 296 297 297 300 299 302 304 303 303 304 306 306 306 306 305 304 303 304 303 302 302 301 300 300 300 301
240 230 246 249 252 258 263 267 270 278 282 285 289 293 291 289 295 298 299 298 299 299 300 302 303 304 305 306 307 307 306 305 305 305 305 303 303 303 303 303 303 303 302 302
242 248 253 257 261 265 268 273 279 283 286 289 290 291 290 293 297 300 301 300 302 302 304 304 305 306 306 307 307 306 306 307 307 307 308 308 308 307 308 307 307 307 307 306
252 256 260 264 268 270 274 280 285 289 290 289 290 293 296 297 299 301 302 302 304 305 304 304 305 306 307 307 307 308 308 310 311 310 309 308 308 308 309 310 310 309 308 308
254 257 260 265 271 274 278 286 289 289 289 292 295 296 297 298 301 301 303 304 305 304 304 305 305 307 307 307 308 309 310 309 309 308 308 309 310 311 311 311 310 310 309 309
253 258 265 271 274 279 286 289 290 289 292 294 294 296 297 299 301 303 305 306 305 303 304 305 305 306 306 307 309 309 308 309 309 310 310 311 311 311 311 311 311 311 311 312
262 267 271 274 278 284 287 288 289 290 291 294 295 296 298 301 303 304 305 305 303 303 304 305 306 306 307 308 308 307 308 310 310 311 311 311 312 312 312 313 313 314 314 315
270 275 279 281 282 283 285 286 287 290 292 293 295 298 301 302 304 304 304 304 304 304 305 306 307 307 307 307 308 309 310 311 311 312 312 312 312 313 314 314 315 316 317 318
Height
5630 5629 5628 5627 5626 5625 5622 5623 5619 5620 5619 5621 5618 5614 5613 5611 5610 5610 5609 5607 5605 5603 5601 5601 5599 5597 5594 5592 5589 5588 5586 5584 5582 5580 5578 5576 5574 5572 5570 5567 5564 5560 5557 5552
5620 5620 5617 5615 5614 5615 5614 5613 5610 5611 5610 5613 5610 5606 5604 5603 5601 5600 5599 5598 5597 5596 5595 5594 5592 5590 5588 5585 5583 5581 5579 5577 5575 5574 5571 5569 5567 5565 5563 5561 5559 5556 5554 5551
5612 5609 5607 5604 5608 5604 5604 5604 5603 5604 5606 5605 5603 5598 5598 5594 5592 5590 5589 5589 5589 5589 5589 5587 5585 5583 5581 5578 5576 5574 5571 5570 5568 5566 5563 5561 5558 5557 5556 5555 5553 5551 5549 5547
5602 5601 5596 5600 5597 5597 5597 5598 5599 5598 5598 5595 5596 5594 5588 5587 5586 5584 5584 5584 5584 5584 5583 5581 5579 5577 5574 5572 5569 5566 5564 5562 5560 5558 5556 5554 5552 5550 5548 5548 5547 5545 5543 5542
5593 5594 5592 5593 5591 5589 5590 5593 5590 5591 5590 5591 5589 5587 5585 5582 5581 5580 5580 5580 5580 5579 5577 5576 5574 5572 5568 5565 5562 5560 5557 5554 5552 5551 5549 5547 5546 5544 5542 5541 5539 5539 5538 5537
5589 5587 5585 5586 5585 5585 5585 5586 5587 5586 5585 5584 5582 5581 5580 5578 5578 5577 5577 5576 5575 5574 5573 5571 5569 5566 5562 5559 5556 5552 5549 5547 5546 5544 5543 5541 5539 5538 5536 5535 5533 5532 5531 5530
5583 5581 5581 5583 5579 5580 5583 5586 5582 5581 5580 5579 5578 5577 5576 5575 5574 5573 5573 5573 5572 5571 5569 5567 5563 5560 5557 5554 5550 5547 5544 5543 5541 5540 5538 5536 5535 5533 5531 5529 5528 5526 5525 5524
5580 5577 5577 5577 5576 5579 5579 5577 5577 5575 5575 5575 5573 5573 5572 5571 5571 5571 5570 5570 5569 5567 5565 5562 5559 5556 5553 5549 5546 5543 5541 5539 5537 5535 5533 5531 5529 5528 5526 5524 5522 5521 5520 5518
5575 5574 5571 5573 5573 5573 5573 5573 5572 5570 5570 5570 5569 5569 5568 5568 5568 5567 5567 5566 5565 5563 5560 5558 5555 5551 5548 5545 5542 5540 5537 5535 5533 5531 5529 5527 5524 5522 5520 5519 5518 5516 5514 5513
5567 5569 5565 5565 5567 5567 5568 5567 5566 5565 5566 5565 5565 5565 5565 5565 5565 5564 5564 5562 5560 5558 5555 5553 5550 5547 5543 5540 5537 5535 5533 5531 5528 5526 5524 5521 5519 5517 5515 5513 5511 5508 5507 5505
5564 5565 5564 5564 5563 5563 5562 5561 5561 5561 5561 5560 5561 5561 5560 5561 5560 5560 5559 5557 5555 5553 5550 5547 5544 5542 5538 5535 5532 5530 5528 5525 5523 5521 5519 5516 5513 5510 5508 5506 5504 5501 5499 5496
5559 5559 5560 5560 5559 5558 5557 5556 5556 5556 5556 5556 5556 5556 5556 5556 5556 5555 5554 5552 5550 5548 5545 5542 5539 5536 5533 5530 5527 5524 5522 5519 5517 5515 5512 5510 5507 5503 5501 5498 5495 5493 5490 5487
5554 5554 5554 5554 5553 5552 5552 5551 5551 5551 5551 5551 5552 5552 5552 5551 5550 5550 5548 5547 5544 5542 5539 5537 5533 5530 5528 5524 5521 5518 5516 5513 5510 5508 5505 5502 5499 5498 5495 5490 5486 5483 5479 5477
5548 5548 5549 5548 5547 5546 5546 5546 5546 5546 5547 5547 5547 5547 5547 5546 5545 5544 5543 5541 5538 5536 5533 5530 5528 5525 5522 5518 5515 5512 5510 5507 5503 5500 5497 5494 5491 5488 5485 5482 5479 5475 5470 5467
5541 5542 5542 5542 5542 5541 5541 5541 5541 5541 5541 5542 5542 5542 5541 5541 5540 5538 5536 5534 5532 5529 5526 5524 5521 5518 5515 5512 5508 5505 5502 5499 5496 5493 5489 5486 5482 5479 5475 5471 5467 5463 5459 5456
5535 5535 5535 5535 5535 5535 5535 5536 5536 5536 5536 5536 5537 5536 5536 5535 5533 5532 5529 5527 5525 5523 5520 5517 5514 5511 5508 5505 5501 5498 5495 5490 5487 5484 5480 5476 5472 5468 5464 5460 5455 5451 5446 5442
5526 5526 5527 5528 5529 5529 5529 5530 5531 5531 5531 5532 5531 5531 5530 5529 5527 5525 5523 5521 5518 5515 5513 5510 5507 5504 5500 5497 5494 5490 5486 5481 5478 5474 5470 5466 5461 5456 5452 5447 5442 5437 5433 5428
5519 5521 5521 5522 5522 5523 5524 5525 5526 5527 5526 5526 5526 5525 5524 5523 5520 5518 5516 5514 5511 5508 5506 5503 5499 5496 5492 5488 5485 5481 5477 5473 5467 5463 5459 5455 5449 5444 5438 5433 5428 5422 5417 5413
5512 5514 5515 5515 5516 5518 5520 5521 5521 5522 5521 5521 5520 5519 5517 5515 5513 5511 5508 5506 5503 5500 5498 5494 5491 5487 5483 5479 5475 5471 5467 5463 5459 5453 5447 5441 5436 5430 5425 5419 5414 5408 5403 5397
5506 5508 5509 5511 5512 5513 5515 5515 5516 5516 5516 5515 5514 5512 5510 5508 5506 5503 5501 5498 5495 5492 5489 5486 5482 5478 5474 5470 5466 5461 5456 5451 5446 5440 5434 5428 5423 5417 5411 5406 5400 5394 5388 5383
5502 5504 5506 5507 5508 5509 5510 5510 5510 5510 5509 5508 5506 5504 5502 5500 5498 5495 5493 5489 5487 5484 5481 5477 5472 5468 5464 5460 5455 5450 5445 5439 5433 5427 5422 5415 5409 5403 5397 5391 5385 5379 5374 5368
5499 5501 5502 5503 5503 5504 5504 5504 5504 5504 5502 5500 5498 5496 5494 5492 5490 5487 5484 5481 5478 5474 5470 5466 5462 5458 5454 5449 5445 5439 5433 5427 5421 5415 5409 5403 5396 5390 5384 5378 5372 5366 5359 5353
5495 5497 5498 5498 5499 5499 5499 5498 5497 5496 5494 5493 5491 5489 5486 5484 5481 5478 5475 5472 5468 5465 5460 5456 5452 5448 5444 5438 5433 5427 5421 5415 5409 5403 5397 5391 5385 5378 5372 5365 5358 5352 5345 5337
5491 5492 5493 5493 5493 5493 5492 5491 5490 5488 5486 5485 5482 5480 5478 5475 5473 5469 5466 5462 5458 5454 5450 5446 5442 5437 5432 5427 5421 5415 5410 5404 5397 5391 5385 5379 5372 5366 5359 5352 5345 5338 5330 5323
5486 5486 5487 5487 5486 5486 5485 5484 5482 5481 5479 5477 5474 5472 5470 5467 5464 5460 5456 5452 5449 5444 5440 5436 5431 5426 5420 5415 5409 5403 5398 5392 5385 5379 5373 5366 5360 5353 5346 5339 5331 5324 5316 5308
5480 5481 5481 5480 5479 5478 5477 5476 5475 5473 5471 5469 5466 5463 5461 5457 5454 5450 5446 5442 5438 5434 5430 5425 5420 5414 5409 5403 5397 5391 5385 5379 5373 5367 5360 5354 5347 5340 5333 5325 5318 5310 5303 5295
5474 5474 5474 5473 5472 5471 5470 5469 5467 5465 5463 5460 5457 5454 5451 5447 5443 5439 5436 5432 5428 5423 5418 5413 5408 5402 5397 5391 5385 5379 5373 5367 5361 5354 5347 5341 5334 5327 5320 5313 5305 5298 5290 5282